Weather History for Albertville, AL

Change the Weather History Date:

Saturday, July 13, 2013

  Actual Average (KGAD) Record (KGAD)
Temperature  
Mean Temperature 22 °C -  
Max Temperature 28 °C 30 °C 41 °C (1930)
Min Temperature 17 °C 18 °C 15 °C (1947)
Cooling Degree Days 7    
Growing Degree Days 22 (Base 50)    
Moisture  
Dew Point 19 °C    
Average Humidity 83    
Maximum Humidity 100    
Minimum Humidity 62    
Precipitation  
Precipitation 0.00 mm - - ()
Sea Level Pressure  
Sea Level Pressure 1016 hPa    
Wind  
Wind Speed 8 km/h (East)    
Max Wind Speed 14 km/h    
Max Gust Speed 26 km/h    
Visibility 16 kilometers    
Events      
Averages and records for this station are not official NWS values.
T = Trace of Precipitation, MM = Missing Value Source: NWS Daily Summary

Daily Weather History Graph

Daily Weather History Graph

Search for Another Location

Airport:

Trip Planner

Search our weather history database for the weather conditions in past years. The results will help you decide how hot, cold, wet, or windy it might be!

Date:

Astronomy

Jul. 13, 2013 Rise Set
Actual Time 5:43 AM CDT 7:58 PM CDT
Civil Twilight 5:14 AM CDT 8:26 PM CDT
Nautical Twilight 4:39 AM CDT 9:01 PM CDT
Astronomical Twilight 4:01 AM CDT 9:39 PM CDT
Moon 10:42 AM CDT (7/13) 10:56 PM CDT (7/13)
Length of Visible Light 15h 12m
Length of Day
14h 14m
Waxing Crescent, 26% of the Moon is Illuminated
Jul 13
Waxing Crescent
Jul 15
First Quarter
Jul 22
Full
Jul 29
Last Quarter
Aug 6
New

Hourly Weather History & Observations

Time (CDT) Temp. Heat Index Dew Point Humidity Pressure Visibility Wind Dir Wind Speed Gust Speed Precip Events Conditions
12:15 AM 20.0 °C - 17.0 °C 83% 1015.1 hPa 16.1 km NE 9.3 km/h / 2.6 m/s - N/A   Clear
12:35 AM 20.0 °C - 17.0 °C 83% 1014.8 hPa 16.1 km NNE 9.3 km/h / 2.6 m/s - N/A   Clear
12:55 AM 20.0 °C - 17.0 °C 83% 1014.8 hPa 16.1 km NNE 5.6 km/h / 1.5 m/s - N/A   Clear
1:15 AM 20.0 °C - 17.0 °C 83% 1014.8 hPa 16.1 km Calm Calm - N/A   Clear
1:35 AM 19.0 °C - 18.0 °C 94% 1014.4 hPa 16.1 km NE 7.4 km/h / 2.1 m/s - N/A   Clear
1:55 AM 19.0 °C - 18.0 °C 94% 1014.8 hPa 16.1 km NNE 7.4 km/h / 2.1 m/s - N/A   Scattered Clouds
2:15 AM 19.0 °C - 17.0 °C 88% 1014.8 hPa 16.1 km NNE 9.3 km/h / 2.6 m/s - N/A   Clear
2:35 AM 19.0 °C - 17.0 °C 88% 1014.8 hPa 16.1 km NE 7.4 km/h / 2.1 m/s - N/A   Clear
2:55 AM 18.0 °C - 17.0 °C 94% 1014.8 hPa 16.1 km NE 7.4 km/h / 2.1 m/s - N/A   Clear
3:15 AM 18.0 °C - 17.0 °C 94% 1014.8 hPa 16.1 km NE 7.4 km/h / 2.1 m/s - N/A   Clear
3:35 AM 18.0 °C - 18.0 °C 100% 1014.4 hPa 16.1 km NNE 7.4 km/h / 2.1 m/s - N/A   Clear
3:55 AM 18.0 °C - 18.0 °C 100% 1014.4 hPa 16.1 km Calm Calm - N/A   Clear
4:15 AM 17.0 °C - 17.0 °C 100% 1014.4 hPa 16.1 km Calm Calm - N/A   Clear
4:35 AM 17.0 °C - 17.0 °C 100% 1014.4 hPa 16.1 km NNE 5.6 km/h / 1.5 m/s - N/A   Clear
4:55 AM 17.0 °C - 17.0 °C 100% 1014.4 hPa 16.1 km NNE 7.4 km/h / 2.1 m/s - N/A   Clear
5:15 AM 17.0 °C - 17.0 °C 100% 1014.8 hPa 16.1 km NNE 7.4 km/h / 2.1 m/s - N/A   Clear
5:35 AM 17.0 °C - 17.0 °C 100% 1014.8 hPa 16.1 km NNE 7.4 km/h / 2.1 m/s - N/A   Clear
5:55 AM 17.0 °C - 17.0 °C 100% 1015.1 hPa 16.1 km NE 9.3 km/h / 2.6 m/s - N/A   Clear
6:15 AM 17.0 °C - 17.0 °C 100% 1015.1 hPa 16.1 km NE 5.6 km/h / 1.5 m/s - N/A   Clear
6:35 AM 18.0 °C - 18.0 °C 100% 1015.1 hPa 16.1 km NE 7.4 km/h / 2.1 m/s - N/A   Clear
6:55 AM 19.0 °C - 19.0 °C 100% 1015.8 hPa 16.1 km NE 7.4 km/h / 2.1 m/s - N/A   Clear
7:15 AM 20.0 °C - 20.0 °C 100% 1016.1 hPa 16.1 km ENE 7.4 km/h / 2.1 m/s - N/A   Clear
7:35 AM 20.0 °C - 20.0 °C 100% 1016.1 hPa 16.1 km East 7.4 km/h / 2.1 m/s - N/A   Clear
7:55 AM 21.0 °C - 21.0 °C 100% 1016.5 hPa 16.1 km East 9.3 km/h / 2.6 m/s - N/A   Clear
8:15 AM 22.0 °C - 20.0 °C 88% 1016.5 hPa 16.1 km East 13.0 km/h / 3.6 m/s - N/A   Scattered Clouds
8:35 AM 22.0 °C - 20.0 °C 88% 1016.5 hPa 16.1 km East 13.0 km/h / 3.6 m/s - N/A   Mostly Cloudy
8:55 AM 23.0 °C - 20.0 °C 83% 1016.5 hPa 16.1 km East 13.0 km/h / 3.6 m/s - N/A   Mostly Cloudy
9:15 AM 23.0 °C - 20.0 °C 83% 1016.5 hPa 16.1 km East 14.8 km/h / 4.1 m/s - N/A   Mostly Cloudy
9:35 AM 23.0 °C - 20.0 °C 83% 1016.5 hPa 16.1 km ENE 7.4 km/h / 2.1 m/s - N/A   Mostly Cloudy
9:55 AM 25.0 °C - 20.0 °C 74% 1016.5 hPa 16.1 km ESE 11.1 km/h / 3.1 m/s - N/A   Scattered Clouds
10:15 AM 25.0 °C - 20.0 °C 74% 1016.5 hPa 16.1 km ESE 11.1 km/h / 3.1 m/s - N/A   Mostly Cloudy
10:35 AM 26.0 °C - 20.0 °C 69% 1016.5 hPa 16.1 km East 7.4 km/h / 2.1 m/s - N/A   Scattered Clouds
10:55 AM 26.0 °C - 20.0 °C 69% 1016.5 hPa 16.1 km East 9.3 km/h / 2.6 m/s - N/A   Mostly Cloudy
11:15 AM 26.0 °C - 21.0 °C 74% 1016.8 hPa 16.1 km SE 14.8 km/h / 4.1 m/s - N/A   Mostly Cloudy
11:35 AM 26.0 °C - 20.0 °C 69% 1016.8 hPa 16.1 km East 9.3 km/h / 2.6 m/s - N/A   Mostly Cloudy
11:55 AM 26.0 °C - 20.0 °C 69% 1017.2 hPa 16.1 km ESE 7.4 km/h / 2.1 m/s - N/A   Overcast
12:15 PM 26.0 °C - 20.0 °C 69% 1017.2 hPa 16.1 km SE 13.0 km/h / 3.6 m/s - N/A   Mostly Cloudy
12:35 PM 26.0 °C - 20.0 °C 69% 1017.2 hPa 16.1 km SE 9.3 km/h / 2.6 m/s - N/A   Mostly Cloudy
12:55 PM 26.0 °C - 20.0 °C 69% 1016.8 hPa 16.1 km SSE 7.4 km/h / 2.1 m/s - N/A   Mostly Cloudy
1:15 PM 27.0 °C 28.5 °C 20.0 °C 65% 1017.2 hPa 16.1 km SSE 11.1 km/h / 3.1 m/s - N/A   Mostly Cloudy
1:35 PM 27.0 °C 28.9 °C 21.0 °C 70% 1016.5 hPa 16.1 km ESE 5.6 km/h / 1.5 m/s - N/A   Scattered Clouds
1:55 PM 27.0 °C 28.5 °C 20.0 °C 65% 1016.1 hPa 16.1 km SE 7.4 km/h / 2.1 m/s - N/A   Scattered Clouds
2:15 PM 28.0 °C 29.7 °C 20.0 °C 62% 1016.1 hPa 16.1 km South 7.4 km/h / 2.1 m/s - N/A   Scattered Clouds
2:35 PM 27.0 °C 28.5 °C 20.0 °C 65% 1016.1 hPa 16.1 km SE 7.4 km/h / 2.1 m/s - N/A   Scattered Clouds
2:55 PM 28.0 °C 30.2 °C 21.0 °C 66% 1015.8 hPa 16.1 km ESE 5.6 km/h / 1.5 m/s - N/A   Scattered Clouds
3:15 PM 27.0 °C 28.9 °C 21.0 °C 70% 1015.5 hPa 16.1 km ESE 7.4 km/h / 2.1 m/s - N/A   Mostly Cloudy
3:35 PM 27.0 °C 28.5 °C 20.0 °C 65% 1015.5 hPa 16.1 km ESE 7.4 km/h / 2.1 m/s - N/A   Mostly Cloudy
3:55 PM 27.0 °C 28.5 °C 20.0 °C 65% 1015.1 hPa 16.1 km SE 13.0 km/h / 3.6 m/s - N/A   Scattered Clouds
4:15 PM 27.0 °C 28.5 °C 20.0 °C 65% 1015.5 hPa 16.1 km East 11.1 km/h / 3.1 m/s - N/A   Mostly Cloudy
4:35 PM 27.0 °C 28.9 °C 21.0 °C 70% 1015.5 hPa 16.1 km East 11.1 km/h / 3.1 m/s - N/A   Scattered Clouds
4:55 PM 27.0 °C 28.9 °C 21.0 °C 70% 1015.8 hPa 16.1 km East 9.3 km/h / 2.6 m/s - N/A   Scattered Clouds
5:15 PM 26.0 °C - 21.0 °C 74% 1015.8 hPa 16.1 km East 13.0 km/h / 3.6 m/s - N/A   Scattered Clouds
5:35 PM 26.0 °C - 21.0 °C 74% 1015.8 hPa 16.1 km East 14.8 km/h / 4.1 m/s - N/A   Clear
5:55 PM 26.0 °C - 20.0 °C 69% 1015.5 hPa 16.1 km ESE 11.1 km/h / 3.1 m/s 25.9 km/h / 7.2 m/s N/A   Clear
6:15 PM 25.0 °C - 21.0 °C 78% 1015.8 hPa 16.1 km East 9.3 km/h / 2.6 m/s - N/A   Scattered Clouds
6:35 PM 25.0 °C - 21.0 °C 78% 1016.1 hPa 16.1 km East 14.8 km/h / 4.1 m/s - N/A   Scattered Clouds
6:55 PM 25.0 °C - 21.0 °C 78% 1016.1 hPa 16.1 km East 11.1 km/h / 3.1 m/s - N/A   Clear
7:15 PM 25.0 °C - 21.0 °C 78% 1016.1 hPa 16.1 km East 13.0 km/h / 3.6 m/s - N/A   Clear
7:35 PM 25.0 °C - 21.0 °C 78% 1016.5 hPa 16.1 km East 7.4 km/h / 2.1 m/s - N/A   Clear
7:55 PM 24.0 °C - 21.0 °C 83% 1016.5 hPa 16.1 km ESE 9.3 km/h / 2.6 m/s - N/A   Clear
8:15 PM 24.0 °C - 21.0 °C 83% 1016.5 hPa 16.1 km East 9.3 km/h / 2.6 m/s - N/A   Clear
8:35 PM 23.0 °C - 21.0 °C 88% 1016.5 hPa 16.1 km East 9.3 km/h / 2.6 m/s - N/A   Clear
8:55 PM 23.0 °C - 21.0 °C 88% 1017.2 hPa 16.1 km East 9.3 km/h / 2.6 m/s - N/A   Clear
9:15 PM 23.0 °C - 21.0 °C 88% 1017.2 hPa 16.1 km East 9.3 km/h / 2.6 m/s - N/A   Clear
9:35 PM 23.0 °C - 21.0 °C 88% 1017.5 hPa 16.1 km ESE 9.3 km/h / 2.6 m/s - N/A   Clear
9:55 PM 23.0 °C - 21.0 °C 88% 1017.5 hPa 16.1 km ESE 5.6 km/h / 1.5 m/s - N/A   Clear
10:15 PM 23.0 °C - 21.0 °C 88% 1017.8 hPa 16.1 km Calm Calm - N/A   Clear
10:35 PM 23.0 °C - 21.0 °C 88% 1018.2 hPa 16.1 km East 7.4 km/h / 2.1 m/s - N/A   Clear
10:55 PM 23.0 °C - 21.0 °C 88% 1018.2 hPa 16.1 km East 9.3 km/h / 2.6 m/s - N/A   Clear
11:15 PM 23.0 °C - 23.0 °C 100% 1018.2 hPa 16.1 km Calm Calm - N/A   Mostly Cloudy
11:35 PM 22.0 °C - 22.0 °C 100% 1018.2 hPa 16.1 km Calm Calm - N/A   Mostly Cloudy
11:55 PM 22.0 °C - 22.0 °C 100% 1018.2 hPa 16.1 km East 5.6 km/h / 1.5 m/s - N/A   Scattered Clouds